Terminal Aerodrome Forecast
Issued by NWS Columbia, SC

Home | Current Version | Previous Version | Text Only | Print | Product List | Glossary On
Versions: 1 2 3 4 5 6 7 8 9 10 11 12 13 14 15 16 17 18 19 20 21 22 23 24 25 26 27 28 29 30 31 32 33 34 35 36 37 38 39 40 41 42 43
000
FTAK31 PAJN 041100
TAFAGS
TAF
PAGS 041137Z 0412/0512 34005KT P6SM VCSH SCT010 OVC020
     FM041400 VRB04KT 6SM -RA BR BKN010 OVC020
     FM041600 15005KT 5SM -RA BR SCT010 OVC030
     FM050100 15007KT 6SM -RA BR SCT015 OVC025
     FM050500 VRB06KT 6SM BR VCSH SCT010 OVC030
      AMD LTD TO CLD VIS AND WIND=

USA.gov is the U.S. government's official web portal to all federal, state and local government web resources and services.